Weather History for Brasilia, Brazil

Change the Weather History Date:

Sunday, January 13, 2013

  Actual Average Record
Temperature  
Mean Temperature 66 °F -  
Max Temperature 69 °F 80 °F 88 °F (2014)
Min Temperature 64 °F 64 °F 62 °F (2000)
Cooling Degree Days 2    
Growing Degree Days 16 (Base 50)    
Moisture  
Dew Point 62 °F    
Average Humidity 83    
Maximum Humidity 88    
Minimum Humidity 68    
Precipitation  
Precipitation 0.00 in - - ()
Sea Level Pressure  
Sea Level Pressure 30.08 in    
Wind  
Wind Speed 6 mph ()    
Max Wind Speed 14 mph    
Max Gust Speed -    
Visibility 6.5 miles    
Events Rain    
Averages and records for this station are not official NWS values.
T = Trace of Precipitation, MM = Missing Value Source: Averaged Metar Reports

Daily Weather History Graph

Daily Weather History Graph

Search for Another Location

Airport:

Trip Planner

Search our weather history database for the weather conditions in past years. The results will help you decide how hot, cold, wet, or windy it might be!

Date:

Astronomy

Jan. 13, 2013 Rise Set
Actual Time 6:51 AM BRST 7:49 PM BRST
Civil Twilight 6:27 AM BRST 8:13 PM BRST
Nautical Twilight 6:00 AM BRST 8:40 PM BRST
Astronomical Twilight 5:31 AM BRST 9:09 PM BRST
Moon 8:33 AM BRST (1/13) 9:22 PM BRST (1/13)
Length of Visible Light 13h 45m
Length of Day
12h 58m
Waxing Crescent, 4% of the Moon is Illuminated
Jan 13
Waxing Crescent
Jan 18
First Quarter
Jan 27
Full
Feb 3
Last Quarter
Feb 10
New

Hourly Weather History & Observations

Time (BRST) Temp. Dew Point Humidity Pressure Visibility Wind Dir Wind Speed Gust Speed Precip Events Conditions
12:00 AM 66.2 °F 60.8 °F 83% 30.06 in 6.2 mi NNE 9.2 mph - N/A   Mostly Cloudy
1:00 AM 64.4 °F 60.8 °F 88% 30.06 in 6.2 mi NNW 8.1 mph - N/A Rain Light Rain
2:00 AM 66.2 °F 60.8 °F 83% 30.04 in 6.2 mi North 6.9 mph - N/A   Mostly Cloudy
3:00 AM 66.2 °F 60.8 °F 83% 30.04 in 6.2 mi NW 5.8 mph - N/A   Mostly Cloudy
4:00 AM 65 °F 61 °F 82%  in 12 mi WSW 2.3 mph - -   Scattered Clouds
4:00 AM 66.2 °F 60.8 °F 83% 30.04 in 6.2 mi WSW 2.3 mph - N/A   Mostly Cloudy
5:00 AM 64.4 °F 60.8 °F 88% 30.04 in 6.2 mi North 3.5 mph - N/A   Mostly Cloudy
6:00 AM 64.4 °F 60.8 °F 88% 30.06 in 6.2 mi NE 4.6 mph - N/A   Mostly Cloudy
7:00 AM 66.2 °F 60.8 °F 83% 30.09 in 6.2 mi North 8.1 mph - N/A   Mostly Cloudy
8:00 AM 66.2 °F 60.8 °F 83% 30.09 in 6.2 mi NNE 6.9 mph - N/A   Mostly Cloudy
9:00 AM 66.2 °F 60.8 °F 83% 30.09 in 6.2 mi NNW 3.5 mph - N/A   Mostly Cloudy
9:39 AM 66.2 °F 60.8 °F 83% 30.12 in 6.2 mi NNE 9.2 mph - N/A   Mostly Cloudy
10:00 AM 66 °F 61 °F 80%  in 7 mi North 8.1 mph - - Rain Light Rain
10:00 AM 66.2 °F 60.8 °F 83% 30.12 in 6.2 mi North 8.1 mph - N/A Rain Light Rain
11:00 AM 66.2 °F 60.8 °F 83% 30.09 in 6.2 mi NNW 8.1 mph - N/A   Mostly Cloudy
12:00 PM 68.0 °F 62.6 °F 83% 30.09 in 6.2 mi North 9.2 mph - N/A   Mostly Cloudy
1:00 PM 69.8 °F 60.8 °F 73% 30.09 in 6.2 mi North 13.8 mph - N/A   Scattered Clouds
2:00 PM 69.8 °F 59.0 °F 68% 30.09 in 6.2 mi NNE 13.8 mph - N/A Rain Light Rain
3:00 PM 68.0 °F 60.8 °F 78% 30.09 in 6.2 mi NNE 10.4 mph - N/A Rain Light Rain
4:00 PM 68 °F 62 °F 76%  in 9 mi North 5.8 mph - - Rain Light Rain
4:00 PM 68.0 °F 62.6 °F 83% 30.09 in 6.2 mi North 5.8 mph - N/A Rain Light Rain
4:40 PM 68.0 °F 62.6 °F 83% 30.06 in 6.2 mi NE 4.6 mph - N/A Rain Light Rain
5:00 PM 68.0 °F 64.4 °F 88% 30.06 in 6.2 mi NE 4.6 mph - N/A Rain Light Rain
6:00 PM 69.8 °F 62.6 °F 78% 30.06 in 6.2 mi NE 9.2 mph - N/A   Overcast
7:00 PM 68.0 °F 62.6 °F 83% 30.09 in 6.2 mi ENE 8.1 mph - N/A Rain Light Rain
8:00 PM 66.2 °F 62.6 °F 88% 30.09 in 6.2 mi ENE 6.9 mph - N/A Rain Light Rain
9:00 PM 66.2 °F 62.6 °F 88% 30.12 in 6.2 mi NE 4.6 mph - N/A Rain Light Rain
10:00 PM 66.2 °F 62.6 °F 88% 30.12 in 6.2 mi NE 4.6 mph - N/A Rain Light Rain
10:15 PM 66.2 °F 62.6 °F 88% 30.12 in 6.2 mi NNE 4.6 mph - N/A Rain Light Rain
11:00 PM 66.2 °F 62.6 °F 88% 30.12 in 6.2 mi North 4.6 mph - N/A Rain Light Rain